NINGXIA-1 5

Last updated on Sat Dec 14 2019 00:02:03 GMT+0000 (Coordinated Universal Time)

1 44783U 19076E 19347.40636250 -.00000130 00000-0 00000+0 0 9993 2 44783 45.0104 0.7575 0010724 49.9592 310.2181 14.01675873 4235
UTC large
Height (km)
Speed (km/s)
/
Latitude / Longitude
Inclination (degrees)
Orbital Period (minutes)
Azimuth
Elevation
Range (km)
Doppler Factor

Next 0 passes for location: London (51.5072 / 0.1276)

Sorry there are no passes over London.